Port Hope, MI

8:01 PM EDT on May 27, 2017 (GMT -0400)
Port Hope

Weather History for KP58 - October, 2013

Change the Weather History Date:

Saturday, October 12, 2013

  Actual Average Record
Temperature  
Mean Temperature 58 °F -  
Max Temperature 70 °F 58 °F 81 °F (2008)
Min Temperature 46 °F 44 °F 32 °F (2006)
Degree Days  
Heating Degree Days 8    
Growing Degree Days 8 (Base 50)    
Moisture  
Dew Point 51 °F    
Average Humidity 76    
Maximum Humidity 93    
Minimum Humidity 57    
Precipitation  
Precipitation 0.00 in - - ()
Sea Level Pressure  
Sea Level Pressure 30.07 in    
Wind  
Wind Speed 3 mph (SE)    
Max Wind Speed 15 mph    
Max Gust Speed -    
Averages and records for this station are not official NWS values.
T = Trace of Precipitation, MM = Missing Value Source: NWS Daily Summary

Daily Weather History Graph

Daily Weather History Graph

Search for Another Location

Airport or City:

Trip Planner

Search our weather history database for the weather conditions in past years. The results will help you decide how hot, cold, wet, or windy it might be!

Date:

Astronomy

Oct. 12, 2013 Rise Set
Actual Time 7:42 AM EDT 6:52 PM EDT
Civil Twilight 7:13 AM EDT 7:21 PM EDT
Nautical Twilight 6:39 AM EDT 7:54 PM EDT
Astronomical Twilight 6:06 AM EDT 8:27 PM EDT
Moon 3:12 PM EDT (10/12) 12:31 AM EDT (10/12)
Length of Visible Light 12h 07m
Length of Day
11h 09m
First Quarter, 58% of the Moon is Illuminated
Oct 12
First Quarter
Oct 18
Full
Oct 26
Last Quarter
Nov 3
New
Nov 10
First Quarter

Hourly Weather History & Observations

Time (EDT) Temp. Dew Point Humidity Pressure Visibility Wind Dir Wind Speed Gust Speed Precip Events Conditions
12:51 AM 54.0 °F 52.0 °F 93% 30.08 in - Calm Calm - N/A   Unknown
1:51 AM 51.1 °F 48.9 °F 92% 30.09 in - Calm Calm - N/A   Unknown
2:51 AM 51.1 °F 48.9 °F 92% 30.09 in - Calm Calm - N/A   Unknown
3:51 AM 50.0 °F 48.0 °F 93% 30.09 in - Calm Calm - N/A   Unknown
4:51 AM 48.0 °F 46.0 °F 93% 30.10 in - Calm Calm - N/A   Unknown
5:51 AM 46.9 °F 44.1 °F 90% 30.12 in - Calm Calm - N/A   Unknown
6:51 AM 46.0 °F 44.1 °F 93% 30.12 in - Calm Calm - N/A   Unknown
7:51 AM 46.0 °F 44.1 °F 93% 30.12 in - Calm Calm - N/A   Unknown
8:51 AM 55.9 °F 46.0 °F 69% 30.11 in - SE 3.5 mph - N/A   Unknown
9:51 AM 60.1 °F 50.0 °F 69% 30.11 in - SE 6.9 mph - N/A   Unknown
10:51 AM 64.0 °F 53.1 °F 67% 30.10 in - SE 5.8 mph - N/A   Unknown
11:51 AM 64.0 °F 55.0 °F 73% 30.09 in - ESE 12.7 mph - N/A   Unknown
12:51 PM 64.9 °F 55.9 °F 73% 30.09 in - ESE 11.5 mph - N/A   Unknown
1:51 PM 64.9 °F 57.9 °F 78% 30.07 in - ESE 13.8 mph - N/A   Unknown
2:51 PM 64.9 °F 57.9 °F 78% 30.05 in - ESE 15.0 mph - N/A   Unknown
3:51 PM 66.9 °F 57.0 °F 70% 30.03 in - SE 9.2 mph - N/A   Unknown
4:51 PM 68.0 °F 55.0 °F 63% 30.03 in - SE 8.1 mph - N/A   Unknown
5:51 PM 69.1 °F 53.1 °F 57% 30.02 in - SE 8.1 mph - N/A   Unknown
6:51 PM 66.0 °F 51.1 °F 59% 30.04 in - SSE 5.8 mph - N/A   Unknown
7:51 PM 64.0 °F 50.0 °F 60% 30.05 in - Variable 5.8 mph - N/A   Unknown
8:51 PM 64.0 °F 50.0 °F 60% 30.05 in - SSE 4.6 mph - N/A   Unknown
9:51 PM 66.0 °F 54.0 °F 65% 30.05 in - SE 5.8 mph - N/A   Unknown
10:51 PM 64.0 °F 54.0 °F 70% 30.05 in - SSE 4.6 mph - N/A   Unknown
11:51 PM 64.9 °F 57.0 °F 75% 30.04 in - South 5.8 mph - N/A   Unknown